Ogden, UT

6:19 AM MDT on September 19, 2017 (GMT -0600)
Ogden-Hinckley

Weather History for KOGD - September, 2013

Change the Weather History Date:

Monday, September 23, 2013

  Actual Average Record
Temperature  
Mean Temperature 56 °F -  
Max Temperature 66 °F 75 °F 92 °F (1992)
Min Temperature 46 °F 43 °F 30 °F (1946)
Degree Days  
Heating Degree Days 9    
Growing Degree Days 6 (Base 50)    
Moisture  
Dew Point 35 °F    
Average Humidity 43    
Maximum Humidity 66    
Minimum Humidity 27    
Precipitation  
Precipitation 0.00 in - - ()
Sea Level Pressure  
Sea Level Pressure 29.95 in    
Wind  
Wind Speed 4 mph (SSW)    
Max Wind Speed 12 mph    
Max Gust Speed 17 mph    
Visibility 10 miles    
Events      
Averages and records for this station are not official NWS values.
T = Trace of Precipitation, MM = Missing Value Source: NWS Daily Summary

Daily Weather History Graph

Daily Weather History Graph

Search for Another Location

Airport or City:

Trip Planner

Search our weather history database for the weather conditions in past years. The results will help you decide how hot, cold, wet, or windy it might be!

Date:

Astronomy

Sep. 23, 2013 Rise Set
Actual Time 7:16 AM MDT 7:22 PM MDT
Civil Twilight 6:49 AM MDT 7:50 PM MDT
Nautical Twilight 6:17 AM MDT 8:22 PM MDT
Astronomical Twilight 5:44 AM MDT 8:55 PM MDT
Moon 9:55 PM MDT (9/23) 11:42 AM MDT (9/23)
Length of Visible Light 13h 01m
Length of Day
12h 06m
Waning Gibbous, 81% of the Moon is Illuminated
Sep 23
Waning Gibbous
Sep 26
Last Quarter
Oct 4
New
Oct 11
First Quarter
Oct 18
Full

Hourly Weather History & Observations

Time (MDT) Temp. Dew Point Humidity Pressure Visibility Wind Dir Wind Speed Gust Speed Precip Events Conditions
12:53 AM 53.1 °F 37.0 °F 55% 29.80 in 10.0 mi Calm Calm - N/A   Clear
1:53 AM 52.0 °F 37.0 °F 57% 29.82 in 10.0 mi Calm Calm - N/A   Clear
2:53 AM 51.1 °F 37.0 °F 59% 29.84 in 10.0 mi Calm Calm - N/A   Partly Cloudy
3:53 AM 50.0 °F 36.0 °F 59% 29.86 in 10.0 mi South 5.8 mph - N/A   Mostly Cloudy
4:53 AM 52.0 °F 36.0 °F 54% 29.87 in 10.0 mi Calm Calm - N/A   Mostly Cloudy
5:53 AM 50.0 °F 36.0 °F 59% 29.89 in 10.0 mi Calm Calm - N/A   Clear
6:53 AM 46.9 °F 36.0 °F 66% 29.92 in 10.0 mi South 5.8 mph - N/A   Clear
7:53 AM 48.9 °F 36.0 °F 61% 29.95 in 10.0 mi South 5.8 mph - N/A   Clear
8:53 AM 57.0 °F 35.1 °F 44% 29.96 in 10.0 mi SSE 4.6 mph - N/A   Clear
9:53 AM 60.1 °F 34.0 °F 38% 29.97 in 10.0 mi NW 5.8 mph - N/A   Partly Cloudy
10:53 AM 62.1 °F 35.1 °F 37% 29.99 in 10.0 mi Variable 4.6 mph - N/A   Clear
11:53 AM 63.0 °F 35.1 °F 35% 30.00 in 10.0 mi NW 4.6 mph - N/A   Mostly Cloudy
12:53 PM 64.9 °F 35.1 °F 33% 29.99 in 10.0 mi NW 9.2 mph - N/A   Overcast
1:53 PM 66.0 °F 35.1 °F 32% 30.00 in 10.0 mi Calm Calm - N/A   Overcast
2:53 PM 66.9 °F 37.0 °F 33% 29.99 in 10.0 mi SSW 6.9 mph - N/A   Partly Cloudy
3:53 PM 66.9 °F 32.0 °F 27% 29.99 in 10.0 mi West 11.5 mph 17.3 mph N/A   Clear
4:53 PM 66.0 °F 32.0 °F 28% 29.98 in 10.0 mi WSW 9.2 mph - N/A   Clear
5:53 PM 66.0 °F 33.1 °F 29% 29.99 in 10.0 mi SSW 9.2 mph - N/A   Clear
6:53 PM 64.0 °F 32.0 °F 30% 29.99 in 10.0 mi South 5.8 mph - N/A   Clear
7:53 PM 62.1 °F 34.0 °F 35% 29.99 in 10.0 mi SSE 5.8 mph - N/A   Clear
8:53 PM 59.0 °F 35.1 °F 41% 30.00 in 10.0 mi SSE 10.4 mph - N/A   Clear
9:53 PM 55.9 °F 35.1 °F 45% 29.99 in 10.0 mi South 8.1 mph - N/A   Clear
10:53 PM 55.9 °F 33.1 °F 42% 29.98 in 10.0 mi SSE 10.4 mph - N/A   Clear
11:53 PM 55.0 °F 33.1 °F 43% 29.98 in 10.0 mi SSE 8.1 mph - N/A   Clear